STARLINK-35972, 66638

Orbit data source: Space-Track

STARLINK-35972, 66638 is a payload satellite owned by SpaceX/Seattle (US) in LEO that was launched on Sun, 23 Nov 2025 UTC via an FALCON 9 launch vehicle from the Air Force Western Test Range (AFWTR). Payload-class satellites include a variety of spacecraft equipped with specific instruments for various scientific and technological missions. These include communications satellites like Starlink; space stations such as the ISS; scientific satellites like the Hubble; Earth observation satellites from companies like Planet Labs, Umbra, and HawkEye 360; GPS; miniature CubeSats for education and research; and military/defense satellites.

Loading next visibility...
Identifier
66638, 2025-271X
Orbit
LEO
Country
Flag of USUS
Related business
Manufacturer
SpaceX/Seattle
Mission
Operational Commercial Communications
Bus & Motor
STARLINK V2MO, Unknown motor
Mass
575 kg wet, ~530 kg dry
Launch date (UTC)
2025-11-23 (7 months ago)
Launch vehicle
FALCON 9
Launch site
Air Force Western Test Range (AFWTR)
Object type
Payload
Rocket body
Debris
Shape & HBR
Box + 2 Pan, 17.7 m
Radar Cross Section
36.964 m², Large (>1 m²)

Expand to show TLE details & history
Last TLE update: 3 days ago

TLE from 3 days ago
0 STARLINK-35972
1 66638U 25271X   26170.91121118  .00026171  00000-0  89199-3 0  9992
2 66638  53.1604  25.3797 0001316 111.3134 248.8007 15.30223060 33218
Epoch: 2026-06-19T21:52Z
TLE epoch observation values (Epoch: 2026-06-19T21:52:08.645Z)
Latitude
-0.00007°
Longitude
149.21023°
Altitude
476.372 km
Speed
7.629 km/s
True Right ascension
01h 41m 31s
True Declination
0° 00' 00"
Sunlit
Object was in daylight at epoch
Visualization orbit readout
Latitude
Unknown
Longitude
Unknown
Altitude
Unknown
Speed
Unknown
Apparent Right ascension
Unknown
Apparent Declination
Unknown
Sunlit
N/A
Visualization observer readout
Local Sidereal Time
08:53:16
Azimuth
Unknown
Elevation
Unknown
Doppler factor
Unknown
Orbital elements
Apogee altitude
476.305 km
Perigee altitude
474.501 km
Semi-major axis
6,853.54 km
Eccentricity
0.00013
Inclination
53.1604°
RAAN
25.3797°
Arg. of periapsis
111.3134°
True anomaly
248.78664°
Mean anomaly
248.8007°
Eccentric anomaly
248.79367°
Mean motion
3.82535 °/min
Orbital period
94.11 mins
BSTAR
0.00089199
Loading maneuver chart data...
Computing Atmospheric mass density...
Loading historical data...
Loading historical data...
Loading historical data...
Loading historical data...
Loading historical data...
Loading historical data...
Loading historical data...

Documentation

Showing up to 5 results
|